STARLINK-11107, 59708

Orbit data source: Space-Track

STARLINK-11107, 59708 is a payload satellite owned by SpaceX/Seattle (US) in LEO that was launched on Fri, 10 May 2024 UTC via an FALCON 9 launch vehicle from the Air Force Western Test Range (AFWTR). Payload-class satellites include a variety of spacecraft equipped with specific instruments for various scientific and technological missions. These include communications satellites like Starlink; space stations such as the ISS; scientific satellites like the Hubble; Earth observation satellites from companies like Planet Labs, Umbra, and HawkEye 360; GPS; miniature CubeSats for education and research; and military/defense satellites.

Loading next visibility...
Identifier
59708, 2024-088A
Orbit
LEO
Country
Flag of USUS
Related business
Manufacturer
SpaceX/Seattle
Mission
Operational Commercial Communications
Bus & Motor
STARLINK V2MD, Unknown motor
Mass
960 kg wet, ~910 kg dry
Launch date (UTC)
2024-05-10 (2 years ago)
Launch vehicle
FALCON 9
Launch site
Air Force Western Test Range (AFWTR)
Object type
Payload
Rocket body
Debris
Shape & HBR
Box + 2 Pan, 18.1 m
Radar Cross Section
36.964 m², Large (>1 m²)

Expand to show TLE details & history
Last TLE update: 22 hours ago

TLE from 22 hours ago
0 STARLINK-11107
1 59708U 24088A   25346.44425999 -.00001988  00000-0 -11564-4 0  9996
2 59708  53.1598  36.0576 0001348 115.9846 244.1311 15.69688948 92550
Epoch: 2025-12-12T10:39Z
TLE epoch observation values (Epoch: 2025-12-12T10:39:44.063Z)
Latitude
0.00001°
Longitude
154.73822°
Altitude
361.098 km
Speed
7.694 km/s
True Right ascension
02h 24m 13s
True Declination
0° 00' 00"
Sunlit
Object was in full shadow at epoch
Visualization orbit readout
Latitude
Unknown
Longitude
Unknown
Altitude
Unknown
Speed
Unknown
Apparent Right ascension
Unknown
Apparent Declination
Unknown
Sunlit
N/A
Visualization observer readout
Local Sidereal Time
07:32:44
Azimuth
Unknown
Elevation
Unknown
Doppler factor
Unknown
Orbital elements
Apogee altitude
360.956 km
Perigee altitude
359.139 km
Semi-major axis
6,738.185 km
Eccentricity
0.00013
Inclination
53.1598°
RAAN
36.0576°
Arg. of periapsis
115.9846°
True anomaly
244.1172°
Mean anomaly
244.1311°
Eccentric anomaly
244.12415°
Mean motion
3.924 °/min
Orbital period
91.74 mins
BSTAR
-0.000011564
Loading maneuver chart data...
Computing Atmospheric mass density...
Loading historical data...
Loading historical data...
Loading historical data...
Loading historical data...
Loading historical data...
Loading historical data...
Loading historical data...

Documentation

Showing up to 5 results
|